[[{"header":{"parameterUnit":"m.s-1","parameterCategory":2,"la1":30.2991,"la2":30.254,"lo1":-89.0895,"lo2":-89.0444,"dy":0.0017,"dx":0.0017,"nx":28,"ny":28,"refTime":"2023-08-12T03:00:00:Z","depth":"0","parameterNumber":2,"parameterNumberName":"U-component_of_CURRENTS"},"data":[0,0,0,0,0,0,0,0,0,0,0,0,0,0,0,0,0,0,0,0,0,0,0,0,0,0,0,0,0,0,0,0,0,0,0,0,0,0,0,0,0,0,0,0,0,0,0,0,0,0,0,0,0,0,0,0,0,0,0.0235,0.0235,0,0.0112,0.0109,0.0106,0.0313,0.0322,0.0331,0.0339,0.0369,0.0362,0.0354,0,0,0,0,0,0,0,0,0,0,0,0,0,0.0223,0.0223,0.0235,0.0235,0.0235,0.0113,0.0109,0.0106,0.0312,0.0322,0.0333,0.0343,0.0371,0.0362,0.0354,0,0,0,0,0,0,0,0,0,0,0,0,0,0.016,0.0223,0.0234,0.0337,0.0346,0.0113,0.0109,0.0105,0.0309,0.0323,0.0336,0.0348,0.0374,0.0363,0.0352,0.0021,0,0,0.0319,0.0314,0,0,0,0,0,0,0,0,0.0164,0.0158,0.0322,0.033,0.034,0.0258,0.0117,0.0091,0.0306,0.0303,0.0339,0.0355,0.0348,0.034,0.0259,0.0022,0.0023,0.0318,0.0311,0.0306,0.0303,0,0,0,0,0,0,0,0.0168,0.0162,0.0167,0.0321,0.0332,0.0246,0.0253,0.0109,0.0241,0.0305,0.0324,0.0336,0.0354,0.0268,0.0262,0.0024,0.0318,0.0308,0.0301,0.0297,-0.0043,-0.0045,0,0,0,0,0,0,0.0229,0.0167,0.0171,0.0165,0.0304,0.0238,0.0245,0.0255,0.024,0.0255,0.0325,0.0347,0.0281,0.0274,0.0264,0.0306,0.0306,0.0296,0.0289,-0.004,-0.0043,-0.0046,0,0,0,0,0,0,0.0228,0.0229,0.0176,0.0179,0.017,0.023,0.0236,0.0247,0.026,0.0258,0.0275,0.0346,0.0291,0.028,0.0203,0.0294,0.0291,0.0281,-0.0037,-0.0041,-0.0044,0.011,0,0,0,0,0,0,0.0228,0.0229,0.0185,0.0183,0.0173,0.0156,0.0225,0.0235,0.0251,0.028,0.0275,0.0288,0.03,0.0219,0.0192,0.0279,0.0272,-0.0034,-0.0039,-0.0043,0.0108,0.0113,0.0116,0,0,0,0,0,0.0227,0.0254,0.0183,0.0182,0.0135,0.0158,0.0143,0.0213,0.0241,0.0263,0.0224,0.0293,0.0178,0.0203,0.0173,0.0261,-0.0032,-0.0038,-0.0043,0.0107,0.0112,0.0116,0,0,0,0,0,0,0.0241,0.0274,0.0203,0.0228,0.0206,0.0206,0.0204,0.0206,0.0164,0.0207,0.0186,0.0189,0.0179,0.0126,0.0156,0.0141,0.0109,0.0097,0.0233,0.0237,0.0241,0.032,0.0263,0,0,0,0,0,0.0191,0.0202,0.0201,0.0187,0.0192,0.0149,0.0137,0.0202,0.0193,0.0194,0.0153,0.0118,0.0089,0.0101,0.0037,-0.0046,-0.0016,0.0005,0.001,0.0014,0.005,0.0089,0.0104,-0.0063,-0.0063,-0.0063,0,0,0.019,0.0188,0.0195,0.018,0.0145,0.0122,0.018,0.0235,0.0257,0.0184,0.0149,0.0099,0.0055,0.0036,0.0031,0.0038,0.008,0.0007,0.0014,0.0047,0.0086,0.0104,0.012,-0.0067,-0.0066,-0.0066,0,0,0.0204,0.0182,0.0186,0.016,0.0157,0.0144,0.0174,0.0169,0.0243,0.0174,0.0157,0.0143,0.0035,0.0058,0.0053,-0.0004,0.0078,-0.0001,0.0117,0.0155,0.0172,0.0188,0.0297,0.0321,0.0032,0.0032,0.0032,0,0.0186,0.0187,0.0184,0.0153,0.0159,0.016,0.0176,0.0183,0.0152,0.0198,0.0233,0.0097,0.0073,0.008,0.0118,0.0027,0.0075,0.0126,0.0174,0.0189,0.0202,0.031,0.0335,0.0039,0.0038,0.0037,0.0037,0,0.02,0.0162,0.0185,0.0121,0.0099,0.0165,0.0183,0.0158,0.0211,0.0256,0.0303,0.0231,0.0185,0.0193,0.016,0.023,0.0246,0.0165,0.0196,0.0231,0.0339,0.0363,0.0048,0.0046,0.0044,0.0042,0,0,0.0245,0.023,0.0207,0.0179,0.0147,0.0158,0.0147,0.0213,0.0243,0.0284,0.0365,0.035,0.036,0.0345,0.0296,0.0365,0.0522,0.034,0.0339,0.0513,0.0685,0.068,0.0705,0.0468,0.0471,0.0474,0.0745,0,0.0255,0.0268,0.0245,0.0199,0.0204,0.0178,0.0172,0.0208,0.0261,0.0307,0.042,0.0439,0.0419,0.0401,0.0479,0.0465,0.0581,0.0461,0.0568,0.0573,0.0617,0.0729,0.0816,0.1062,0.0768,0.0772,0.0775,0,0.0201,0.025,0.0278,0.028,0.029,0.0263,0.0255,0.0264,0.0333,0.04,0.0457,0.0491,0.0584,0.0551,0.069,0.062,0.0691,0.0726,0.0734,0.0696,0.061,0.0958,0.1115,0.1147,0.081,0.0807,0.0805,0,0.0189,0.0221,0.0289,0.0281,0.0287,0.0308,0.0324,0.0316,0.0378,0.0433,0.0498,0.0581,0.0652,0.0729,0.079,0.0757,0.0976,0.0908,0.1,0.1003,0.108,0.1082,0.1333,0.1061,0.1061,0.106,0.1059,0,0.0197,0.0231,0.031,0.0325,0.0391,0.0374,0.0423,0.0394,0.0466,0.0559,0.0576,0.0675,0.0705,0.0812,0.0863,0.1021,0.1028,0.1084,0.1079,0.1133,0.1136,0.116,0.1064,0.107,0.1068,0.1066,0.1064,0,0.0173,0.0218,0.0235,0.0321,0.035,0.0378,0.0478,0.0519,0.0565,0.0654,0.0688,0.0809,0.0934,0.0961,0.1083,0.1125,0.119,0.1272,0.1365,0.1365,0.1463,0.1368,0.1361,0.1239,0.1472,0.1474,0.1475,0,0.0212,0.0203,0.0211,0.0233,0.0307,0.039,0.0441,0.0513,0.0565,0.0751,0.0831,0.0986,0.111,0.1315,0.1369,0.1474,0.1301,0.1577,0.1505,0.1547,0.1439,0.1201,0.1077,0.1711,0.1714,0.1716,0.1718,0,0.0247,0.0186,0.0236,0.0262,0.0308,0.0363,0.0484,0.0554,0.0647,0.0769,0.0985,0.1126,0.1375,0.153,0.1606,0.1675,0.1468,0.1634,0.166,0.1653,0.143,0.1283,0.1485,0.1741,0.1739,0.1737,0.1736,0.1735,0.0231,0.0254,0.0233,0.0299,0.0312,0.0354,0.043,0.0565,0.0674,0.0849,0.1048,0.1238,0.1487,0.1672,0.1789,0.194,0.1686,0.1943,0.1844,0.1615,0.1425,0.1696,0.1909,0.1908,0.1907,0.1906,0.1905,0,0.0209,0.0269,0.031,0.0306,0.0327,0.0353,0.0455,0.0532,0.0674,0.0817,0.1008,0.1259,0.155,0.1748,0.2017,0.2126,0.1978,0.2101,0.1863,0.1734,0.2065,0.2009,0.2272,0.2272,0.2272,0.2272,0.2272,0.2272,0.0182,0.0237,0.0298,0.0315,0.0349,0.0387,0.0446,0.0537,0.0621,0.0796,0.0904,0.1045,0.1288,0.1775,0.2107,0.2166,0.1934,0.1945,0.1723,0.2104,0.2082,0.2062,0.1998,0.2255,0.2254,0.1389,0.1383,0.1378]},{"header":{"parameterUnit":"m.s-1","parameterCategory":2,"la1":30.2991,"la2":30.254,"lo1":-89.0895,"lo2":-89.0444,"dy":0.0017,"dx":0.0017,"nx":28,"ny":28,"refTime":"2023-08-12T03:00:00:Z","depth":"0","parameterNumber":3,"parameterNumberName":"V-component_of_CURRENTS"},"data":[0,0,0,0,0,0,0,0,0,0,0,0,0,0,0,0,0,0,0,0,0,0,0,0,0,0,0,0,0,0,0,0,0,0,0,0,0,0,0,0,0,0,0,0,0,0,0,0,0,0,0,0,0,0,0,0,0,0,-0.0234,-0.0232,0,-0.0257,-0.0259,-0.0262,-0.0381,-0.0381,-0.0381,-0.0382,-0.0441,-0.0442,-0.0443,0,0,0,0,0,0,0,0,0,0,0,0,0,-0.0261,-0.0262,-0.0234,-0.0232,-0.0229,-0.0256,-0.0259,-0.0262,-0.0381,-0.0381,-0.0382,-0.0382,-0.044,-0.0442,-0.0443,0,0,0,0,0,0,0,0,0,0,0,0,0,-0.0289,-0.0263,-0.0234,-0.0272,-0.0274,-0.0256,-0.0259,-0.0263,-0.0381,-0.0381,-0.0382,-0.0382,-0.044,-0.0442,-0.0443,-0.0444,0,0,-0.0449,-0.045,0,0,0,0,0,0,0,0,-0.0287,-0.0291,-0.0269,-0.0269,-0.0271,-0.0293,-0.0289,-0.0316,-0.038,-0.0368,-0.0382,-0.0382,-0.0376,-0.0384,-0.0425,-0.0446,-0.0449,-0.0449,-0.045,-0.0451,-0.0452,0,0,0,0,0,0,0,-0.0285,-0.029,-0.027,-0.0265,-0.0267,-0.0274,-0.0283,-0.0297,-0.0391,-0.037,-0.0371,-0.0331,-0.0381,-0.0423,-0.0426,-0.045,-0.0449,-0.0451,-0.0452,-0.0453,-0.0459,-0.0458,0,0,0,0,0,0,-0.0229,-0.0289,-0.0269,-0.0268,-0.025,-0.0272,-0.0282,-0.0307,-0.039,-0.0395,-0.033,-0.0336,-0.0419,-0.0424,-0.0429,-0.0451,-0.0451,-0.0453,-0.0454,-0.046,-0.0459,-0.0458,0,0,0,0,0,0,-0.0231,-0.0231,-0.0268,-0.0253,-0.0255,-0.0268,-0.0297,-0.0307,-0.0341,-0.0354,-0.0366,-0.0349,-0.042,-0.0426,-0.0451,-0.0453,-0.0454,-0.0455,-0.0461,-0.046,-0.0458,-0.0484,0,0,0,0,0,0,-0.0234,-0.0233,-0.029,-0.0252,-0.0253,-0.03,-0.0294,-0.0306,-0.0301,-0.031,-0.0373,-0.0381,-0.0421,-0.0448,-0.0453,-0.0456,-0.0457,-0.0462,-0.046,-0.0459,-0.0484,-0.0483,-0.0483,0,0,0,0,0,-0.0236,-0.0266,-0.0295,-0.0292,-0.0315,-0.0299,-0.0308,-0.0332,-0.0301,-0.0359,-0.0367,-0.0379,-0.0439,-0.045,-0.0455,-0.0459,-0.0463,-0.0461,-0.0459,-0.0484,-0.0483,-0.0483,0,0,0,0,0,0,-0.0287,-0.0278,-0.0309,-0.0337,-0.0342,-0.031,-0.0316,-0.0317,-0.0371,-0.0367,-0.0381,-0.0392,-0.0412,-0.0419,-0.0429,-0.0449,-0.0446,-0.0445,-0.0463,-0.0463,-0.0462,-0.0478,-0.0458,0,0,0,0,0,-0.0324,-0.0343,-0.0344,-0.035,-0.0349,-0.0335,-0.0335,-0.0357,-0.035,-0.0376,-0.0404,-0.041,-0.0408,-0.0422,-0.0446,-0.046,-0.0446,-0.0456,-0.0456,-0.0455,-0.0468,-0.0429,-0.0427,-0.0451,-0.0451,-0.0451,0,0,-0.0347,-0.0314,-0.0344,-0.0361,-0.0345,-0.0349,-0.0345,-0.0335,-0.0361,-0.0366,-0.0417,-0.0417,-0.0408,-0.0441,-0.0447,-0.0448,-0.044,-0.0453,-0.0453,-0.0466,-0.0427,-0.0424,-0.0423,-0.045,-0.045,-0.045,0,0,-0.0321,-0.0362,-0.0382,-0.0382,-0.0357,-0.0352,-0.034,-0.0349,-0.0405,-0.0445,-0.0427,-0.042,-0.0458,-0.045,-0.0439,-0.0433,-0.0436,-0.0436,-0.0457,-0.0419,-0.0417,-0.0415,-0.0397,-0.0394,-0.0439,-0.0439,-0.0439,0,-0.0347,-0.0378,-0.0382,-0.0364,-0.0334,-0.0336,-0.0335,-0.0388,-0.0419,-0.0443,-0.0471,-0.0452,-0.0456,-0.0419,-0.0442,-0.0433,-0.0428,-0.0467,-0.042,-0.0418,-0.0416,-0.0398,-0.0394,-0.044,-0.044,-0.044,-0.044,0,-0.0366,-0.0378,-0.0345,-0.0342,-0.0325,-0.0317,-0.0339,-0.0383,-0.0405,-0.0453,-0.0477,-0.049,-0.0469,-0.0463,-0.0467,-0.0436,-0.0443,-0.0423,-0.0429,-0.0415,-0.0396,-0.0392,-0.0441,-0.0441,-0.0441,-0.044,0,0,-0.0406,-0.0393,-0.0376,-0.037,-0.0323,-0.0301,-0.0309,-0.0349,-0.034,-0.0445,-0.0443,-0.0463,-0.0476,-0.0461,-0.0444,-0.0432,-0.0419,-0.0445,-0.0443,-0.0441,-0.0362,-0.039,-0.0388,-0.0404,-0.0403,-0.0402,-0.0357,0,-0.042,-0.0418,-0.0385,-0.0342,-0.0337,-0.0302,-0.028,-0.0304,-0.0352,-0.0383,-0.0426,-0.0417,-0.0473,-0.0437,-0.0453,-0.0417,-0.0409,-0.0435,-0.0365,-0.0363,-0.04,-0.0383,-0.0314,-0.0271,-0.0353,-0.0352,-0.0351,0,-0.0425,-0.0431,-0.0424,-0.0337,-0.0324,-0.0299,-0.0231,-0.0249,-0.0279,-0.0286,-0.0316,-0.0355,-0.0362,-0.0392,-0.0385,-0.041,-0.0403,-0.0388,-0.0385,-0.0403,-0.0382,-0.0295,-0.0259,-0.022,-0.0344,-0.0344,-0.0345,0,-0.042,-0.0405,-0.0401,-0.0386,-0.0325,-0.0301,-0.0282,-0.0248,-0.0254,-0.0245,-0.0205,-0.0253,-0.0238,-0.0271,-0.0318,-0.0338,-0.0311,-0.0306,-0.0322,-0.0323,-0.0246,-0.0243,-0.0175,-0.0281,-0.0281,-0.0281,-0.0282,0,-0.0391,-0.0388,-0.0425,-0.0425,-0.0372,-0.0333,-0.0282,-0.0225,-0.021,-0.0176,-0.0189,-0.0135,-0.021,-0.0239,-0.029,-0.0317,-0.0282,-0.0332,-0.0312,-0.0253,-0.0252,-0.0201,-0.0184,-0.028,-0.028,-0.028,-0.0281,0,-0.035,-0.0375,-0.0358,-0.0364,-0.035,-0.0323,-0.0278,-0.0251,-0.0196,-0.0142,-0.0124,-0.0075,-0.0062,-0.0152,-0.0161,-0.024,-0.0204,-0.0263,-0.0215,-0.0193,-0.0201,-0.0189,-0.01,0.0022,-0.0275,-0.0276,-0.0276,0,-0.0358,-0.0349,-0.0323,-0.028,-0.0288,-0.0284,-0.0227,-0.0211,-0.0206,-0.0092,-0.0064,-0.0027,0.0036,-0.0018,-0.0124,-0.02,-0.0158,-0.0191,-0.0215,-0.0201,-0.017,-0.0149,-0.0047,-0.0112,-0.0111,-0.011,-0.011,0,-0.036,-0.032,-0.0316,-0.0249,-0.0196,-0.0158,-0.0166,-0.0142,-0.0105,-0.0032,0.0068,0.0127,0.0114,0.0104,-0.001,-0.009,-0.0103,-0.0179,-0.0142,-0.0035,-0.0021,0.0108,-0.0163,-0.0102,-0.0103,-0.0103,-0.0104,-0.0104,-0.0336,-0.0315,-0.0269,-0.0196,-0.0122,-0.0057,-0.0019,-0.0021,0.0033,0.0157,0.0155,0.0319,0.0332,0.0201,0.007,-0.0062,-0.0028,-0.0055,-0.004,-0.002,0.0093,-0.0198,-0.0136,-0.0137,-0.0138,-0.0139,-0.0139,0,-0.0293,-0.0271,-0.0221,-0.0117,-0.0046,-0.0025,0.0044,0.0092,0.0189,0.0292,0.0379,0.053,0.0493,0.0383,0.0205,0.0125,0.0149,0.01,0.0184,0.0288,0.0055,0.0055,0.0137,0.0137,0.0137,0.0136,0.0136,0.0136,-0.0251,-0.0197,-0.0193,-0.0079,-0.0019,0.0088,0.0148,0.0263,0.0343,0.0547,0.0679,0.0789,0.0832,0.0507,0.0303,0.0242,0.0372,0.0319,0.0396,0.023,0.0218,0.0206,0.0211,0.0324,0.0324,0.0706,0.0708,0.0711]}],[{"header":{"parameterUnit":"m.s-1","parameterCategory":2,"la1":30.2991,"la2":30.254,"lo1":-89.0895,"lo2":-89.0444,"dy":0.0017,"dx":0.0017,"nx":28,"ny":28,"refTime":"2023-08-12T03:00:00:Z","depth":"2","parameterNumber":2,"parameterNumberName":"U-component_of_CURRENTS"},"data":[0,0,0,0,0,0,0,0,0,0,0,0,0,0,0,0,0,0,0,0,0,0,0,0,0,0,0,0,0,0,0,0,0,0,0,0,0,0,0,0,0,0,0,0,0,0,0,0,0,0,0,0,0,0,0,0,0,0,-0.2391,-0.2391,0,-0.2428,-0.2429,-0.2429,-0.2387,-0.2386,-0.2384,-0.2383,-0.2156,-0.2151,-0.2147,0,0,0,0,0,0,0,0,0,0,0,0,0,-0.216,-0.2165,-0.2391,-0.2391,-0.2392,-0.2428,-0.2429,-0.2429,-0.2388,-0.2386,-0.2384,-0.2382,-0.2157,-0.2152,-0.2146,0,0,0,0,0,0,0,0,0,0,0,0,0,-0.2235,-0.2167,-0.2391,-0.2375,-0.2374,-0.2428,-0.2429,-0.2429,-0.2388,-0.2386,-0.2383,-0.2381,-0.2159,-0.2152,-0.2146,-0.2151,0,0,-0.2125,-0.2122,0,0,0,0,0,0,0,0,-0.2231,-0.2244,-0.2377,-0.2377,-0.2376,-0.2401,-0.2264,-0.2323,-0.2389,-0.2383,-0.2383,-0.238,-0.2215,-0.2204,-0.2219,-0.214,-0.2131,-0.2124,-0.212,-0.2117,-0.2115,0,0,0,0,0,0,0,-0.2226,-0.2241,-0.2406,-0.2378,-0.2377,-0.2324,-0.2334,-0.2276,-0.2307,-0.2383,-0.238,-0.2385,-0.2212,-0.2227,-0.2213,-0.2127,-0.2124,-0.2118,-0.2114,-0.2111,-0.2035,-0.2037,0,0,0,0,0,0,-0.2232,-0.2238,-0.2404,-0.2407,-0.2296,-0.2331,-0.2341,-0.2395,-0.2313,-0.2301,-0.2387,-0.2383,-0.2239,-0.2221,-0.2204,-0.2083,-0.2117,-0.2111,-0.2107,-0.2033,-0.2035,-0.2037,0,0,0,0,0,0,-0.2228,-0.2249,-0.2403,-0.2319,-0.2335,-0.2339,-0.2398,-0.2397,-0.2368,-0.2319,-0.2301,-0.2355,-0.2237,-0.2214,-0.2146,-0.2077,-0.2108,-0.2101,-0.203,-0.2034,-0.2036,-0.1916,0,0,0,0,0,0,-0.2222,-0.2249,-0.2231,-0.2322,-0.234,-0.2433,-0.2401,-0.2399,-0.2378,-0.2372,-0.2286,-0.2266,-0.2233,-0.2157,-0.2139,-0.2069,-0.2096,-0.2028,-0.2032,-0.2035,-0.1918,-0.1915,-0.1913,0,0,0,0,0,-0.2215,-0.2237,-0.2232,-0.2248,-0.2339,-0.2435,-0.2439,-0.243,-0.2378,-0.2389,-0.2325,-0.2266,-0.217,-0.2152,-0.2131,-0.2056,-0.2026,-0.2031,-0.2035,-0.1919,-0.1916,-0.1913,0,0,0,0,0,0,-0.2151,-0.2238,-0.2234,-0.2285,-0.2344,-0.2427,-0.2419,-0.241,-0.2373,-0.232,-0.2271,-0.225,-0.2168,-0.2164,-0.2146,-0.2067,-0.2096,-0.2096,-0.2015,-0.2011,-0.2009,-0.2023,-0.209,0,0,0,0,0,-0.2126,-0.2141,-0.2246,-0.2272,-0.2312,-0.235,-0.2359,-0.2356,-0.2361,-0.2341,-0.2277,-0.2223,-0.2185,-0.2135,-0.2108,-0.2043,-0.2036,-0.2002,-0.2,-0.1996,-0.2007,-0.199,-0.1983,-0.2053,-0.2053,-0.2053,0,0,-0.2111,-0.2148,-0.2159,-0.225,-0.2293,-0.2314,-0.2351,-0.237,-0.236,-0.2314,-0.2238,-0.2193,-0.2175,-0.2112,-0.2076,-0.208,-0.1966,-0.2002,-0.1998,-0.2012,-0.1993,-0.1986,-0.1979,-0.2056,-0.2055,-0.2055,0,0,-0.2076,-0.2134,-0.2123,-0.2139,-0.2174,-0.225,-0.2248,-0.2299,-0.2306,-0.2264,-0.222,-0.2156,-0.2091,-0.2064,-0.2046,-0.2026,-0.1959,-0.2003,-0.1966,-0.1947,-0.1939,-0.1932,-0.1853,-0.1841,-0.1991,-0.1991,-0.1991,0,-0.2044,-0.2058,-0.2136,-0.2094,-0.2089,-0.2215,-0.2193,-0.2253,-0.2246,-0.2265,-0.2227,-0.215,-0.2082,-0.2042,-0.2011,-0.2005,-0.1969,-0.1951,-0.1934,-0.1928,-0.1923,-0.1845,-0.1832,-0.1986,-0.1986,-0.1987,-0.1987,0,-0.2002,-0.1958,-0.1971,-0.1971,-0.1974,-0.2006,-0.209,-0.2102,-0.2123,-0.2184,-0.2159,-0.2102,-0.2056,-0.2019,-0.1978,-0.1912,-0.1884,-0.1926,-0.1916,-0.1907,-0.1827,-0.1815,-0.1978,-0.198,-0.1982,-0.1983,0,0,-0.2015,-0.1978,-0.1938,-0.1896,-0.1904,-0.1939,-0.1939,-0.2062,-0.2069,-0.2097,-0.2102,-0.2036,-0.2024,-0.2008,-0.1946,-0.1907,-0.1771,-0.1867,-0.1868,-0.1742,-0.1663,-0.1437,-0.1403,-0.1785,-0.1784,-0.1783,-0.1596,0,-0.1963,-0.1935,-0.1866,-0.1779,-0.1799,-0.1808,-0.1767,-0.1829,-0.1956,-0.2002,-0.2068,-0.2051,-0.2032,-0.1938,-0.1908,-0.1802,-0.1748,-0.1815,-0.1735,-0.1732,-0.1494,-0.1386,-0.1488,-0.1313,-0.1585,-0.1583,-0.1582,0,-0.1853,-0.188,-0.183,-0.1702,-0.1692,-0.1611,-0.1635,-0.1614,-0.175,-0.1792,-0.1876,-0.1974,-0.1918,-0.1909,-0.178,-0.181,-0.1721,-0.1672,-0.1665,-0.1496,-0.1486,-0.1387,-0.1283,-0.1563,-0.1565,-0.1566,-0.1567,0,-0.1816,-0.1772,-0.1776,-0.1731,-0.1651,-0.1556,-0.1515,-0.1557,-0.1547,-0.1699,-0.1718,-0.1794,-0.1732,-0.1715,-0.1557,-0.1676,-0.1381,-0.1564,-0.1308,-0.1291,-0.1388,-0.1378,-0.1502,-0.1502,-0.1503,-0.1503,-0.1504,0,-0.1729,-0.1674,-0.1767,-0.1691,-0.1659,-0.1502,-0.1418,-0.1412,-0.1356,-0.1359,-0.1585,-0.162,-0.1675,-0.1572,-0.1506,-0.1252,-0.1328,-0.1257,-0.1217,-0.1341,-0.133,-0.1593,-0.1606,-0.1496,-0.1498,-0.1499,-0.1501,0,-0.1578,-0.1645,-0.1602,-0.1573,-0.1595,-0.1512,-0.1346,-0.1305,-0.122,-0.1219,-0.1242,-0.1411,-0.1309,-0.1248,-0.113,-0.1099,-0.0938,-0.0826,-0.0899,-0.087,-0.0925,-0.0936,-0.0698,-0.0688,-0.068,-0.0673,-0.0667,0,-0.1547,-0.1521,-0.1555,-0.1564,-0.153,-0.1467,-0.1408,-0.1277,-0.1243,-0.1125,-0.1139,-0.1081,-0.1159,-0.0849,-0.0737,-0.0527,-0.0589,-0.0461,-0.0761,-0.0851,-0.0838,-0.0862,-0.0883,-0.0848,-0.0845,-0.0842,-0.0839,0,-0.1415,-0.1379,-0.1349,-0.1447,-0.1427,-0.1431,-0.1338,-0.1331,-0.1138,-0.1136,-0.109,-0.1129,-0.0906,-0.0833,-0.0436,-0.0387,-0.0526,-0.0392,-0.0445,-0.0991,-0.0965,-0.0961,-0.0984,-0.0811,-0.0814,-0.0816,-0.0817,-0.0818,-0.1335,-0.1263,-0.1205,-0.1314,-0.1268,-0.127,-0.1242,-0.1246,-0.1178,-0.104,-0.1093,-0.0983,-0.0915,-0.0481,-0.0343,-0.0178,-0.0298,-0.038,-0.0404,-0.0428,-0.0433,-0.039,-0.0127,-0.0126,-0.0125,-0.0124,-0.0123,0,-0.1278,-0.1141,-0.1121,-0.1093,-0.1009,-0.1069,-0.1074,-0.1086,-0.1096,-0.0988,-0.0916,-0.0736,-0.0672,-0.0443,-0.0233,-0.0198,-0.038,-0.0169,-0.0485,-0.0511,-0.0534,-0.056,-0.0279,-0.0278,-0.0278,-0.0278,0,0,-0.119,-0.1086,-0.1057,-0.0879,-0.0837,-0.0716,-0.0746,-0.0872,-0.0811,-0.0778,-0.0584,-0.0556,-0.0464,-0.033,-0.0356,-0.0269,-0.0395,-0.027,-0.0163,-0.0564,-0.0587,-0.0679,-0.0744,0,0,0,0,0]},{"header":{"parameterUnit":"m.s-1","parameterCategory":2,"la1":30.2991,"la2":30.254,"lo1":-89.0895,"lo2":-89.0444,"dy":0.0017,"dx":0.0017,"nx":28,"ny":28,"refTime":"2023-08-12T03:00:00:Z","depth":"2","parameterNumber":3,"parameterNumberName":"V-component_of_CURRENTS"},"data":[0,0,0,0,0,0,0,0,0,0,0,0,0,0,0,0,0,0,0,0,0,0,0,0,0,0,0,0,0,0,0,0,0,0,0,0,0,0,0,0,0,0,0,0,0,0,0,0,0,0,0,0,0,0,0,0,0,0,-0.0118,-0.0117,0,-0.001,-0.0009,-0.0007,0.0032,0.0032,0.0032,0.0031,0.0153,0.0156,0.016,0,0,0,0,0,0,0,0,0,0,0,0,0,-0.0141,-0.0142,-0.0118,-0.0117,-0.0115,-0.001,-0.0009,-0.0007,0.0032,0.0032,0.0031,0.0031,0.0152,0.0156,0.016,0,0,0,0,0,0,0,0,0,0,0,0,0,-0.0092,-0.0142,-0.0118,-0.0083,-0.0079,-0.001,-0.0009,-0.0007,0.0033,0.0032,0.0031,0.0031,0.015,0.0155,0.0161,0.0206,0,0,0.0177,0.018,0,0,0,0,0,0,0,0,-0.0095,-0.0091,-0.009,-0.0086,-0.0081,-0.0003,0.0028,0.0065,0.0033,-0.0009,0.0031,0.003,0.0102,0.0111,0.0133,0.0212,0.0217,0.0178,0.0181,0.0183,0.0185,0,0,0,0,0,0,0,-0.0099,-0.0095,-0.0075,-0.0088,-0.0083,-0.0022,-0.0017,0.0036,0.0049,-0.0006,-0.0003,0.0009,0.0104,0.0128,0.0137,0.0219,0.0178,0.0182,0.0186,0.0188,0.0276,0.0275,0,0,0,0,0,0,-0.012,-0.0099,-0.0078,-0.0071,-0.009,-0.0022,-0.0016,-0.0027,0.0048,0.0059,0.0009,0.001,0.0119,0.013,0.0141,0.0144,0.0183,0.0188,0.0191,0.0277,0.0276,0.0275,0,0,0,0,0,0,-0.0121,-0.012,-0.0082,-0.0081,-0.0072,-0.0022,-0.0034,-0.0025,-0.0023,0.0059,0.007,-0.0001,0.0119,0.0133,0.0177,0.0151,0.0191,0.0196,0.0278,0.0276,0.0275,0.0185,0,0,0,0,0,0,-0.0123,-0.0122,-0.0146,-0.0084,-0.0073,-0.0052,-0.0033,-0.0022,-0.0013,-0.0012,0.0055,0.0067,0.012,0.0169,0.0182,0.0159,0.02,0.0279,0.0277,0.0275,0.0189,0.0181,0.0174,0,0,0,0,0,-0.0125,-0.0139,-0.0149,-0.0146,-0.0107,-0.0052,-0.0041,-0.0005,-0.0014,-0.0008,0.0034,0.0064,0.0166,0.0173,0.019,0.0167,0.028,0.0278,0.0276,0.0193,0.0183,0.0174,0,0,0,0,0,0,-0.0147,-0.0134,-0.0144,-0.0153,-0.0118,-0.0046,-0.0026,-0.0023,0.0014,0.0012,0.007,0.0087,0.011,0.0152,0.0158,0.0185,0.0221,0.0222,0.0152,0.0143,0.0136,0.0134,0.0204,0,0,0,0,0,-0.0171,-0.0214,-0.0153,-0.0182,-0.014,-0.0097,-0.0076,-0.0061,-0.0014,-0.0,0.0028,0.007,0.0119,0.0141,0.0187,0.0214,0.0247,0.0203,0.0195,0.0188,0.0197,0.0227,0.0223,0.0268,0.0268,0.0268,0,0,-0.0195,-0.02,-0.0223,-0.0196,-0.0151,-0.0108,-0.0085,-0.0054,-0.0046,0.001,0.0018,0.0047,0.0119,0.0146,0.0158,0.0176,0.0187,0.0186,0.0179,0.0192,0.0224,0.022,0.0216,0.0266,0.0267,0.0267,0,0,-0.0238,-0.0247,-0.0265,-0.0246,-0.0202,-0.0143,-0.0144,-0.009,-0.0076,-0.0055,-0.0025,-0.0003,0.0054,0.01,0.0137,0.0118,0.0145,0.0101,0.0065,0.0093,0.009,0.0087,0.0099,0.0098,0.0097,0.0097,0.0097,0,-0.026,-0.0288,-0.0258,-0.0259,-0.0235,-0.0163,-0.0136,-0.0101,-0.0071,-0.0057,-0.0062,0.0004,0.0048,0.0102,0.0077,0.0104,0.0105,0.0094,0.0083,0.0081,0.0081,0.0093,0.0094,0.0092,0.0093,0.0093,0.0094,0,-0.0294,-0.0325,-0.0316,-0.0301,-0.0264,-0.0237,-0.016,-0.0133,-0.011,-0.01,-0.0073,-0.002,0.0021,0.0016,0.0043,0.0044,0.004,0.0068,0.0105,0.0071,0.0086,0.0088,0.0086,0.0087,0.0089,0.009,0,0,-0.0305,-0.0333,-0.0332,-0.034,-0.0287,-0.0244,-0.0194,-0.0112,-0.0092,-0.0085,-0.0074,-0.0024,-0.0036,0.0003,0.0019,0.0025,0.0002,0.0016,0.002,0.0025,0.0029,0.0012,0.0014,0.0005,0.0005,0.0006,0.0033,0,-0.0322,-0.0336,-0.0343,-0.0339,-0.0304,-0.0246,-0.022,-0.017,-0.011,-0.0093,-0.0044,-0.0027,-0.0027,-0.0026,-0.0023,-0.0008,0.0006,-0.0009,0.0066,0.0069,0.0056,0.0016,0.0093,0.0122,0.0035,0.0036,0.0036,0,-0.0339,-0.034,-0.0326,-0.0355,-0.0327,-0.0321,-0.0216,-0.0192,-0.0132,-0.0125,-0.0091,-0.0058,-0.0044,-0.0037,-0.001,-0.0037,-0.0012,0.0006,0.0009,0.0032,0.0057,0.0149,0.013,0.0041,0.004,0.004,0.004,0,-0.0318,-0.0342,-0.0322,-0.0331,-0.0315,-0.0298,-0.0269,-0.0203,-0.0166,-0.0131,-0.0112,-0.0096,-0.0081,-0.0054,-0.0029,-0.0026,-0.0012,0.0025,0.0052,0.0051,0.0158,0.0165,0.0076,0.0076,0.0076,0.0076,0.0075,0,-0.0332,-0.0339,-0.0322,-0.0316,-0.0299,-0.0307,-0.0275,-0.0245,-0.0212,-0.0189,-0.0141,-0.0109,-0.0092,-0.0063,-0.0043,-0.0018,-0.0008,0.004,0.0057,0.0124,0.0127,0.0101,0.0103,0.0077,0.0076,0.0076,0.0076,0,-0.035,-0.0333,-0.0341,-0.032,-0.0294,-0.0294,-0.0272,-0.0247,-0.0234,-0.0184,-0.0171,-0.0128,-0.0104,-0.0068,-0.0037,-0.0025,0.0008,0.0031,0.0085,0.0108,0.006,0.0058,0.0079,0.0079,0.0078,0.0078,0.0078,0,-0.0372,-0.0363,-0.0327,-0.0292,-0.0288,-0.0271,-0.0241,-0.0246,-0.0212,-0.0182,-0.0153,-0.0111,-0.0067,-0.0049,0.0011,0.0063,0.0021,0.0109,0.0156,0.0046,0.0061,0.0059,0.0057,0.026,0.0261,0.0262,0.0263,0,-0.0396,-0.0383,-0.0361,-0.0286,-0.0251,-0.0218,-0.0188,-0.0171,-0.0169,-0.0127,-0.0088,-0.0048,0.0002,0.0062,0.0089,0.0145,0.0098,0.0132,0.0023,0.0229,0.0214,0.0229,0.0222,0.0272,0.0271,0.0271,0.027,0.027,-0.041,-0.0412,-0.0343,-0.029,-0.0235,-0.0165,-0.0142,-0.0106,-0.0057,-0.006,-0.0064,-0.0028,-0.0057,0.0059,0.0124,0.0238,0.0236,0.0222,0.0221,0.0218,0.0216,0.02,0.0255,0.0254,0.0253,0.0252,0.0251,0,-0.0398,-0.0367,-0.0324,-0.0267,-0.0223,-0.016,-0.0081,-0.0081,-0.0023,-0.0047,-0.0051,-0.0038,0.0034,0.0078,0.0305,0.0346,0.0405,0.0326,0.0373,0.0365,0.0357,0.0363,0.044,0.044,0.044,0.044,0,0,-0.038,-0.0339,-0.0322,-0.0242,-0.0186,-0.0095,-0.0034,-0.0017,0.0004,-0.0032,-0.0011,-0.015,-0.0002,0.0089,0.0189,0.0348,0.0351,0.0389,0.0245,0.0287,0.0278,0.0317,0.0318,0,0,0,0,0]}],[{"header":{"parameterUnit":"m.s-1","parameterCategory":2,"la1":30.2991,"la2":30.254,"lo1":-89.0895,"lo2":-89.0444,"dy":0.0017,"dx":0.0017,"nx":28,"ny":28,"refTime":"2023-08-12T03:00:00:Z","depth":"4","parameterNumber":2,"parameterNumberName":"U-component_of_CURRENTS"},"data":[0,0,0,0,0,0,0,0,0,0,0,0,0,0,0,0,0,0,0,0,0,0,0,0,0,0,0,0,0,0,0,0,0,0,0,0,0,0,0,0,0,0,0,0,0,0,0,0,0,0,0,0,0,0,0,0,0,0,-0.1172,-0.1172,0,-0.1247,-0.1248,-0.1249,-0.1315,-0.1315,-0.1316,-0.1316,-0.1421,-0.1424,-0.1426,0,0,0,0,0,0,0,0,0,0,0,0,0,-0.1082,-0.1084,-0.1172,-0.1172,-0.1173,-0.1247,-0.1248,-0.1249,-0.1314,-0.1315,-0.1316,-0.1316,-0.1421,-0.1423,-0.1426,0,0,0,0,0,0,0,0,0,0,0,0,0,-0.1138,-0.1084,-0.1172,-0.1213,-0.1217,-0.1246,-0.1248,-0.1249,-0.1314,-0.1315,-0.1316,-0.1317,-0.142,-0.1423,-0.1427,-0.1433,0,0,-0.1437,-0.1439,0,0,0,0,0,0,0,0,-0.1135,-0.1141,-0.1206,-0.121,-0.1215,-0.127,-0.1255,-0.1311,-0.1314,-0.128,-0.1316,-0.1317,-0.1371,-0.1379,-0.1394,-0.1438,-0.1442,-0.1438,-0.144,-0.1441,-0.1442,0,0,0,0,0,0,0,-0.1131,-0.1138,-0.1204,-0.1207,-0.1212,-0.1226,-0.1235,-0.1266,-0.1323,-0.1283,-0.1287,-0.1291,-0.1374,-0.1391,-0.1397,-0.1444,-0.1438,-0.1441,-0.1443,-0.1444,-0.1561,-0.1562,0,0,0,0,0,0,-0.1116,-0.1135,-0.1202,-0.1206,-0.1173,-0.1227,-0.1237,-0.1253,-0.1322,-0.1332,-0.1291,-0.1294,-0.1385,-0.1393,-0.1401,-0.1473,-0.1441,-0.1444,-0.1446,-0.156,-0.1561,-0.1562,0,0,0,0,0,0,-0.1114,-0.1121,-0.1199,-0.1169,-0.118,-0.1227,-0.1245,-0.1254,-0.13,-0.1327,-0.1339,-0.1329,-0.1386,-0.1397,-0.1446,-0.1475,-0.1446,-0.1449,-0.1559,-0.1561,-0.1562,-0.1577,0,0,0,0,0,0,-0.1111,-0.1121,-0.114,-0.1169,-0.1181,-0.1229,-0.1244,-0.1255,-0.1298,-0.1304,-0.1363,-0.1372,-0.1387,-0.144,-0.1449,-0.1479,-0.1452,-0.1558,-0.156,-0.1561,-0.1575,-0.1579,-0.1582,0,0,0,0,0,-0.1108,-0.1134,-0.1141,-0.1149,-0.1202,-0.1229,-0.1238,-0.1275,-0.1299,-0.132,-0.1358,-0.1372,-0.1459,-0.1444,-0.1454,-0.1486,-0.1557,-0.1559,-0.1561,-0.1573,-0.1578,-0.1582,0,0,0,0,0,0,-0.1101,-0.1143,-0.1152,-0.1188,-0.1209,-0.124,-0.1267,-0.129,-0.1338,-0.1359,-0.1383,-0.1395,-0.1447,-0.1464,-0.1447,-0.1525,-0.1511,-0.1515,-0.1517,-0.1521,-0.1525,-0.15,-0.1455,0,0,0,0,0,-0.1106,-0.1139,-0.1166,-0.1192,-0.1209,-0.1242,-0.1264,-0.1292,-0.1329,-0.1353,-0.1383,-0.1424,-0.146,-0.1489,-0.1517,-0.1562,-0.1548,-0.159,-0.1593,-0.1596,-0.1583,-0.159,-0.1592,-0.157,-0.157,-0.157,0,0,-0.1115,-0.1134,-0.1158,-0.1193,-0.1218,-0.1246,-0.126,-0.1306,-0.1327,-0.1356,-0.1403,-0.1437,-0.1473,-0.1519,-0.1546,-0.1542,-0.1594,-0.1599,-0.1601,-0.1587,-0.1593,-0.1595,-0.1596,-0.1572,-0.1571,-0.1571,0,0,-0.1127,-0.1162,-0.1191,-0.1216,-0.1255,-0.1272,-0.1289,-0.1332,-0.1354,-0.1395,-0.1424,-0.1466,-0.1521,-0.1547,-0.1569,-0.1608,-0.1607,-0.1635,-0.164,-0.1648,-0.1649,-0.165,-0.1624,-0.1623,-0.1642,-0.1642,-0.1642,0,-0.1131,-0.1166,-0.12,-0.1228,-0.1251,-0.1284,-0.1315,-0.1339,-0.1388,-0.1398,-0.1413,-0.1493,-0.1526,-0.1579,-0.1595,-0.1615,-0.161,-0.1622,-0.165,-0.1651,-0.1652,-0.1625,-0.1623,-0.1643,-0.1643,-0.1643,-0.1643,0,-0.116,-0.1194,-0.1213,-0.1256,-0.1288,-0.1322,-0.1354,-0.1382,-0.1409,-0.1421,-0.1472,-0.1514,-0.1557,-0.1586,-0.1605,-0.1643,-0.1634,-0.1648,-0.1635,-0.1654,-0.1625,-0.1623,-0.1644,-0.1644,-0.1644,-0.1643,0,0,-0.1149,-0.1218,-0.1228,-0.1245,-0.1311,-0.133,-0.1372,-0.1397,-0.1414,-0.1457,-0.1471,-0.1542,-0.1563,-0.1588,-0.1629,-0.1644,-0.1646,-0.1654,-0.1654,-0.1618,-0.1643,-0.1486,-0.1468,-0.1674,-0.1674,-0.1674,-0.1616,0,-0.1154,-0.1197,-0.1241,-0.1284,-0.1308,-0.1357,-0.139,-0.1425,-0.1439,-0.1455,-0.1496,-0.1529,-0.1565,-0.1598,-0.162,-0.1647,-0.1643,-0.1659,-0.1637,-0.1635,-0.1485,-0.1461,-0.1675,-0.1614,-0.1613,-0.1613,-0.1613,0,-0.1162,-0.1188,-0.1235,-0.1288,-0.1307,-0.1342,-0.1387,-0.1422,-0.1453,-0.1468,-0.1503,-0.1522,-0.1567,-0.1584,-0.1621,-0.1635,-0.1631,-0.1639,-0.1637,-0.1479,-0.1474,-0.1594,-0.1608,-0.1609,-0.1609,-0.1609,-0.161,0,-0.1118,-0.1178,-0.1208,-0.1234,-0.1309,-0.1336,-0.1375,-0.1423,-0.1446,-0.1468,-0.1471,-0.1524,-0.1539,-0.157,-0.1577,-0.161,-0.1579,-0.1626,-0.147,-0.1459,-0.1615,-0.1614,-0.1614,-0.1614,-0.1615,-0.1615,-0.1615,0,-0.1092,-0.1115,-0.1189,-0.121,-0.124,-0.1316,-0.1345,-0.1384,-0.1441,-0.1446,-0.1477,-0.1467,-0.1535,-0.1522,-0.1552,-0.1477,-0.1556,-0.1441,-0.1426,-0.1622,-0.1623,-0.1612,-0.1612,-0.1613,-0.1613,-0.1613,-0.1614,0,-0.1039,-0.1088,-0.112,-0.12,-0.1221,-0.1247,-0.1323,-0.1335,-0.1401,-0.1404,-0.1412,-0.1424,-0.1384,-0.1408,-0.1422,-0.1404,-0.1381,-0.1329,-0.1492,-0.1493,-0.1267,-0.1269,-0.1163,-0.1157,-0.1151,-0.1147,-0.1143,0,-0.1014,-0.103,-0.1105,-0.1108,-0.1141,-0.1185,-0.1211,-0.1302,-0.1315,-0.1356,-0.1342,-0.1301,-0.1286,-0.1163,-0.1217,-0.1201,-0.1198,-0.118,-0.1259,-0.122,-0.1218,-0.1229,-0.1238,-0.1135,-0.1134,-0.1132,-0.1131,0,-0.0964,-0.1003,-0.1029,-0.1039,-0.1055,-0.1071,-0.1114,-0.112,-0.1211,-0.1276,-0.1215,-0.1166,-0.1077,-0.1057,-0.1009,-0.1025,-0.1204,-0.1126,-0.1139,-0.1213,-0.1186,-0.1191,-0.1206,-0.1113,-0.1115,-0.1117,-0.1118,0,-0.0925,-0.0925,-0.096,-0.0947,-0.096,-0.0943,-0.0978,-0.0985,-0.1021,-0.1103,-0.1067,-0.103,-0.1053,-0.0959,-0.0943,-0.0903,-0.092,-0.094,-0.0964,-0.0984,-0.0951,-0.0892,-0.0687,0,0,0,0,0,-0.0885,-0.0865,-0.0857,-0.0829,-0.0833,-0.0841,-0.0907,-0.0954,-0.104,-0.0968,-0.1031,-0.0948,-0.0868,-0.0853,-0.0775,-0.0857,-0.0922,-0.0765,-0.0958,-0.1012,-0.1033,-0.101,0,0,0,0,0,0,-0.085,-0.085,-0.0832,-0.0729,-0.0686,-0.0681,-0.0719,-0.0779,-0.0759,-0.0852,-0.0802,-0.088,-0.0804,-0.0875,-0.0743,-0.0743,-0.0846,-0.0773,-0.077,-0.1,-0.1019,-0.1036,-0.102,0,0,0,0,0]},{"header":{"parameterUnit":"m.s-1","parameterCategory":2,"la1":30.2991,"la2":30.254,"lo1":-89.0895,"lo2":-89.0444,"dy":0.0017,"dx":0.0017,"nx":28,"ny":28,"refTime":"2023-08-12T03:00:00:Z","depth":"4","parameterNumber":3,"parameterNumberName":"V-component_of_CURRENTS"},"data":[0,0,0,0,0,0,0,0,0,0,0,0,0,0,0,0,0,0,0,0,0,0,0,0,0,0,0,0,0,0,0,0,0,0,0,0,0,0,0,0,0,0,0,0,0,0,0,0,0,0,0,0,0,0,0,0,0,0,-0.0204,-0.0203,0,-0.0195,-0.0195,-0.0195,-0.0173,-0.0172,-0.0172,-0.0171,-0.0113,-0.0112,-0.0111,0,0,0,0,0,0,0,0,0,0,0,0,0,-0.0202,-0.0203,-0.0204,-0.0203,-0.0203,-0.0195,-0.0195,-0.0195,-0.0173,-0.0172,-0.0171,-0.0171,-0.0113,-0.0112,-0.0111,0,0,0,0,0,0,0,0,0,0,0,0,0,-0.0202,-0.0203,-0.0204,-0.0188,-0.0187,-0.0195,-0.0195,-0.0195,-0.0173,-0.0172,-0.0171,-0.017,-0.0113,-0.0112,-0.0111,-0.0126,0,0,-0.0107,-0.0106,0,0,0,0,0,0,0,0,-0.0202,-0.0203,-0.0191,-0.0189,-0.0188,-0.0181,-0.0173,-0.0169,-0.0174,-0.0182,-0.0171,-0.017,-0.013,-0.0127,-0.0133,-0.0123,-0.0121,-0.0107,-0.0106,-0.0106,-0.0105,0,0,0,0,0,0,0,-0.0202,-0.0203,-0.0204,-0.0191,-0.0189,-0.0182,-0.0181,-0.0173,-0.0164,-0.0181,-0.0179,-0.0173,-0.0129,-0.0135,-0.0132,-0.012,-0.0107,-0.0106,-0.0105,-0.0105,-0.0157,-0.0159,0,0,0,0,0,0,-0.0198,-0.0203,-0.0204,-0.0203,-0.0188,-0.0183,-0.0182,-0.0187,-0.0165,-0.016,-0.0174,-0.0172,-0.0137,-0.0133,-0.0129,-0.0149,-0.0106,-0.0104,-0.0104,-0.0155,-0.0157,-0.0159,0,0,0,0,0,0,-0.0198,-0.0199,-0.0204,-0.0199,-0.0199,-0.0184,-0.019,-0.0187,-0.0185,-0.016,-0.0154,-0.0172,-0.0136,-0.0131,-0.0126,-0.0146,-0.0104,-0.0103,-0.0152,-0.0155,-0.0158,-0.0187,0,0,0,0,0,0,-0.0199,-0.0199,-0.0211,-0.02,-0.0199,-0.0197,-0.019,-0.0188,-0.0182,-0.0179,-0.0157,-0.0151,-0.0135,-0.0128,-0.0125,-0.0144,-0.0102,-0.0149,-0.0153,-0.0157,-0.0183,-0.019,-0.0197,0,0,0,0,0,-0.0199,-0.0214,-0.0212,-0.0211,-0.0213,-0.0196,-0.0195,-0.0183,-0.0183,-0.0179,-0.0176,-0.0151,-0.0152,-0.0128,-0.0124,-0.0143,-0.0147,-0.0152,-0.0157,-0.018,-0.0189,-0.0197,0,0,0,0,0,0,-0.0212,-0.0212,-0.0209,-0.0222,-0.0204,-0.019,-0.0196,-0.0185,-0.0183,-0.0182,-0.0164,-0.0158,-0.0166,-0.0159,-0.0133,-0.0177,-0.0152,-0.0156,-0.0171,-0.0179,-0.0186,-0.018,-0.0101,0,0,0,0,0,-0.0222,-0.0238,-0.0221,-0.0229,-0.0227,-0.0214,-0.021,-0.0193,-0.0185,-0.0183,-0.0179,-0.0182,-0.0188,-0.0183,-0.0185,-0.0197,-0.0173,-0.0216,-0.0223,-0.0228,-0.0225,-0.0195,-0.0197,-0.0175,-0.0175,-0.0175,0,0,-0.0219,-0.0231,-0.0232,-0.0234,-0.0229,-0.0236,-0.0209,-0.0197,-0.0205,-0.0177,-0.0204,-0.0199,-0.0198,-0.0217,-0.0221,-0.0206,-0.023,-0.0234,-0.0238,-0.0232,-0.02,-0.0201,-0.0202,-0.0178,-0.0178,-0.0177,0,0,-0.023,-0.0243,-0.0257,-0.0261,-0.0253,-0.0246,-0.0241,-0.0231,-0.0229,-0.0242,-0.0237,-0.0246,-0.0256,-0.0261,-0.0264,-0.0313,-0.0266,-0.032,-0.0342,-0.0313,-0.0313,-0.0313,-0.0305,-0.0304,-0.0322,-0.0322,-0.0323,0,-0.023,-0.0257,-0.0253,-0.0279,-0.0296,-0.0255,-0.0274,-0.0265,-0.0256,-0.0263,-0.0254,-0.0289,-0.0283,-0.0305,-0.0324,-0.0326,-0.0299,-0.0303,-0.0317,-0.0316,-0.0315,-0.0307,-0.0305,-0.0324,-0.0324,-0.0324,-0.0324,0,-0.0252,-0.0281,-0.0293,-0.0324,-0.0337,-0.034,-0.0334,-0.0329,-0.033,-0.0328,-0.0348,-0.0344,-0.0363,-0.037,-0.0357,-0.0364,-0.0345,-0.0324,-0.0284,-0.0318,-0.0309,-0.0306,-0.0327,-0.0326,-0.0326,-0.0325,0,0,-0.0242,-0.0295,-0.0304,-0.0332,-0.0368,-0.037,-0.0392,-0.0396,-0.0407,-0.04,-0.0429,-0.044,-0.0429,-0.0433,-0.042,-0.0392,-0.0373,-0.0351,-0.0349,-0.0323,-0.031,-0.0274,-0.0267,-0.0333,-0.0332,-0.0332,-0.0311,0,-0.0262,-0.0315,-0.0349,-0.04,-0.0428,-0.0435,-0.0472,-0.0473,-0.0468,-0.0481,-0.0462,-0.0487,-0.0455,-0.0465,-0.0431,-0.0391,-0.0364,-0.0381,-0.0299,-0.0297,-0.0242,-0.0262,-0.033,-0.0309,-0.0308,-0.0308,-0.0307,0,-0.0291,-0.0324,-0.0381,-0.0454,-0.047,-0.05,-0.0544,-0.0559,-0.0561,-0.0569,-0.0565,-0.055,-0.0538,-0.0496,-0.0427,-0.0431,-0.0374,-0.0331,-0.0328,-0.0277,-0.0255,-0.0266,-0.0302,-0.0303,-0.0303,-0.0303,-0.0304,0,-0.0297,-0.036,-0.0408,-0.0434,-0.0498,-0.053,-0.0557,-0.0585,-0.0607,-0.0612,-0.0631,-0.0606,-0.0601,-0.0521,-0.044,-0.0426,-0.0345,-0.0322,-0.024,-0.0238,-0.026,-0.026,-0.0259,-0.0259,-0.0259,-0.0259,-0.0259,0,-0.0334,-0.037,-0.0408,-0.0434,-0.0502,-0.0546,-0.0607,-0.0625,-0.0656,-0.0687,-0.0669,-0.0677,-0.0596,-0.0541,-0.0455,-0.0344,-0.0361,-0.0244,-0.0223,-0.028,-0.0282,-0.0259,-0.026,-0.0258,-0.0259,-0.0259,-0.0259,0,-0.0353,-0.0376,-0.0434,-0.0491,-0.0512,-0.0562,-0.0644,-0.0675,-0.0702,-0.0733,-0.0742,-0.0726,-0.065,-0.0564,-0.0448,-0.0373,-0.0272,-0.0226,-0.0315,-0.03,-0.0184,-0.0187,-0.0138,-0.0136,-0.0135,-0.0134,-0.0133,0,-0.0365,-0.0391,-0.0462,-0.0509,-0.0542,-0.0607,-0.0659,-0.07,-0.072,-0.0754,-0.0759,-0.0717,-0.0686,-0.0516,-0.0417,-0.0267,-0.0228,-0.0197,-0.0165,-0.0183,-0.0168,-0.0173,-0.0178,-0.013,-0.013,-0.013,-0.0129,0,-0.0387,-0.0415,-0.0461,-0.0541,-0.0606,-0.0675,-0.0725,-0.0737,-0.077,-0.0792,-0.0766,-0.0699,-0.0611,-0.0491,-0.0378,-0.0265,-0.0232,-0.0182,-0.0184,-0.0153,-0.0174,-0.0162,-0.0168,-0.0125,-0.0125,-0.0126,-0.0126,0,-0.0404,-0.0446,-0.05,-0.0577,-0.0659,-0.0715,-0.0746,-0.0755,-0.0773,-0.0771,-0.076,-0.0689,-0.065,-0.0488,-0.0384,-0.0272,-0.0228,-0.0194,-0.0194,-0.0198,-0.0209,-0.0244,-0.0198,0,0,0,0,0,-0.0417,-0.0457,-0.0526,-0.0617,-0.0697,-0.0733,-0.0778,-0.0791,-0.0791,-0.0767,-0.0757,-0.0671,-0.0525,-0.0473,-0.0348,-0.0345,-0.0211,-0.0196,-0.0171,-0.0099,-0.0104,-0.0102,0,0,0,0,0,0,-0.0438,-0.0493,-0.0519,-0.0618,-0.0676,-0.0756,-0.0783,-0.0792,-0.0756,-0.0747,-0.0663,-0.0635,-0.0484,-0.0589,-0.0345,-0.0315,-0.028,-0.013,-0.0127,-0.0096,-0.01,-0.0105,-0.0105,0,0,0,0,0]}]]